Time,TemperatureF,DewpointF,PressureIn,WindDirection,WindDirectionDegrees,WindSpeedMPH,WindSpeedGustMPH,Humidity,HourlyPrecipIn,Conditions,Clouds,dailyrainin,SoftwareType,DateUTC
2014-03-24 00:00:00,16.9,6.5,30.24,SSE,158,0.0,2.0,63,0.00,,SKC,0.00,VWS V15.00,2014-03-24 04:00:00,
2014-03-24 01:00:00,15.4,6.4,30.24,SSE,158,0.0,1.0,67,0.00,,SKC,0.00,VWS V15.00,2014-03-24 05:00:00,
2014-03-24 02:00:00,14.7,7.6,30.24,SSE,158,0.0,1.0,73,0.00,,SKC,0.00,VWS V15.00,2014-03-24 06:00:00,
2014-03-24 03:00:00,13.8,8.2,30.23,SSE,158,0.0,1.0,78,0.00,,SKC,0.00,VWS V15.00,2014-03-24 07:00:00,
2014-03-24 06:00:00,11.4,6.2,30.23,SSE,150,0.0,0.0,79,0.00,,SKC,0.00,VWS V15.00,2014-03-24 10:00:00,
2014-03-24 06:01:00,13.8,8.2,30.23,SSE,158,0.0,1.0,78,0.00,,SKC,0.00,VWS V15.00,2014-03-24 10:01:00,
2014-03-24 06:07:00,11.6,6.6,30.23,SSE,150,0.0,0.0,80,0.00,,SKC,0.00,VWS V15.00,2014-03-24 10:07:00,
2014-03-24 06:12:00,11.7,6.7,30.23,SSE,150,0.0,0.0,80,0.00,,SKC,0.00,VWS V15.00,2014-03-24 10:12:00,
2014-03-24 06:17:00,11.7,6.7,30.23,SSE,150,0.0,0.0,80,0.00,,SKC,0.00,VWS V15.00,2014-03-24 10:17:00,
2014-03-24 06:22:00,11.7,6.7,30.23,SSE,150,0.0,0.0,80,0.00,,SKC,0.00,VWS V15.00,2014-03-24 10:22:00,
2014-03-24 06:28:00,11.7,6.7,30.23,SSE,150,0.0,0.0,80,0.00,,SKC,0.00,VWS V15.00,2014-03-24 10:28:00,
2014-03-24 06:33:00,11.7,6.7,30.23,SSE,150,0.0,0.0,80,0.00,,SKC,0.00,VWS V15.00,2014-03-24 10:33:00,
2014-03-24 06:38:00,11.7,6.7,30.23,SSE,150,0.0,0.0,80,0.00,,SKC,0.00,VWS V15.00,2014-03-24 10:38:00,
2014-03-24 06:42:00,11.6,6.6,30.23,SSE,150,0.0,1.0,80,0.00,,SKC,0.00,VWS V15.00,2014-03-24 10:42:00,
2014-03-24 06:48:00,11.4,6.4,30.23,SSE,150,0.0,1.0,80,0.00,,SKC,0.00,VWS V15.00,2014-03-24 10:48:00,
2014-03-24 06:53:00,11.4,6.4,30.23,SSE,150,0.0,2.0,80,0.00,,SKC,0.00,VWS V15.00,2014-03-24 10:53:00,
2014-03-24 06:58:00,11.1,6.2,30.23,SSE,150,0.0,2.0,80,0.00,,SKC,0.00,VWS V15.00,2014-03-24 10:58:00,
2014-03-24 07:00:00,11.1,6.2,30.23,SSE,150,0.0,2.0,80,0.00,,SKC,0.00,VWS V15.00,2014-03-24 11:00:00,
2014-03-24 07:03:00,10.9,5.9,30.23,SSE,150,0.0,0.0,80,0.00,,SKC,0.00,VWS V15.00,2014-03-24 11:03:00,
2014-03-24 07:09:00,10.9,5.9,30.23,SSE,150,0.0,1.0,80,0.00,,SKC,0.00,VWS V15.00,2014-03-24 11:09:00,
2014-03-24 07:13:00,11.1,6.2,30.23,SSE,150,0.0,1.0,80,0.00,,SKC,0.00,VWS V15.00,2014-03-24 11:13:00,
2014-03-24 07:19:00,11.4,6.4,30.24,SSE,150,0.0,1.0,80,0.00,,SKC,0.00,VWS V15.00,2014-03-24 11:19:00,
2014-03-24 07:23:00,11.4,6.4,30.24,SSE,150,0.0,1.0,80,0.00,,SKC,0.00,VWS V15.00,2014-03-24 11:23:00,
2014-03-24 07:28:00,11.4,6.7,30.24,SSE,150,0.0,1.0,81,0.00,,SKC,0.00,VWS V15.00,2014-03-24 11:28:00,
2014-03-24 07:34:00,11.4,6.7,30.24,SSE,150,0.0,1.0,81,0.00,,SKC,0.00,VWS V15.00,2014-03-24 11:34:00,
2014-03-24 07:39:00,11.6,6.9,30.24,SSE,150,0.0,1.0,81,0.00,,SKC,0.00,VWS V15.00,2014-03-24 11:39:00,
2014-03-24 07:44:00,11.6,6.9,30.24,SSE,150,0.0,1.0,81,0.00,,SKC,0.00,VWS V15.00,2014-03-24 11:44:00,
2014-03-24 07:49:00,11.7,7.0,30.24,SSE,150,0.0,1.0,81,0.00,,SKC,0.00,VWS V15.00,2014-03-24 11:49:00,
2014-03-24 07:55:00,11.7,7.0,30.24,SSE,150,0.0,1.0,81,0.00,,SKC,0.00,VWS V15.00,2014-03-24 11:55:00,
2014-03-24 08:00:00,11.9,7.2,30.24,SSE,150,0.0,1.0,81,0.00,,SKC,0.00,VWS V15.00,2014-03-24 12:00:00,
2014-03-24 08:04:00,12.1,7.7,30.25,SSE,150,0.0,0.0,82,0.00,,SKC,0.00,VWS V15.00,2014-03-24 12:04:00,
2014-03-24 08:09:00,12.6,8.2,30.25,SSE,150,0.0,0.0,82,0.00,,SKC,0.00,VWS V15.00,2014-03-24 12:09:00,
2014-03-24 08:14:00,12.9,8.4,30.25,SSE,150,0.0,0.0,82,0.00,,SKC,0.00,VWS V15.00,2014-03-24 12:14:00,
2014-03-24 08:20:00,13.3,8.8,30.24,SSE,150,0.0,0.0,82,0.00,,SKC,0.00,VWS V15.00,2014-03-24 12:20:00,
2014-03-24 08:25:00,13.6,9.1,30.24,SSE,150,0.0,0.0,82,0.00,,SKC,0.00,VWS V15.00,2014-03-24 12:25:00,
2014-03-24 08:30:00,14.0,9.5,30.24,SSE,150,0.0,0.0,82,0.00,,SKC,0.00,VWS V15.00,2014-03-24 12:30:00,
2014-03-24 08:35:00,14.3,9.8,30.25,SSE,150,0.0,2.0,82,0.00,,SKC,0.00,VWS V15.00,2014-03-24 12:35:00,
2014-03-24 08:40:00,14.6,10.1,30.25,SSE,150,0.0,2.0,82,0.00,,SKC,0.00,VWS V15.00,2014-03-24 12:40:00,
2014-03-24 08:45:00,14.9,10.4,30.24,SSE,150,0.0,2.0,82,0.00,,SKC,0.00,VWS V15.00,2014-03-24 12:45:00,
2014-03-24 08:51:00,15.4,10.9,30.24,SSE,150,1.0,2.0,82,0.00,,SKC,0.00,VWS V15.00,2014-03-24 12:51:00,
2014-03-24 08:56:00,16.1,11.6,30.24,SSE,150,1.0,2.0,82,0.00,,SKC,0.00,VWS V15.00,2014-03-24 12:56:00,
2014-03-24 09:00:00,16.9,12.1,30.24,NNW,329,2.0,4.0,81,0.00,,SKC,0.00,VWS V15.00,2014-03-24 13:00:00,
2014-03-24 09:01:00,16.7,11.9,30.24,NNW,329,2.0,4.0,81,0.00,,SKC,0.00,VWS V15.00,2014-03-24 13:01:00,
2014-03-24 09:06:00,17.5,12.4,30.24,NNW,328,4.0,4.0,80,0.00,,SKC,0.00,VWS V15.00,2014-03-24 13:06:00,
2014-03-24 09:11:00,17.8,11.8,30.24,NW,313,2.0,5.0,77,0.00,,SKC,0.00,VWS V15.00,2014-03-24 13:11:00,
2014-03-24 09:16:00,18.8,12.5,30.23,NW,313,3.0,5.0,76,0.00,,SKC,0.00,VWS V15.00,2014-03-24 13:16:00,
2014-03-24 09:22:00,19.2,12.0,30.23,NW,313,3.0,7.0,73,0.00,,SKC,0.00,VWS V15.00,2014-03-24 13:22:00,
2014-03-24 09:26:00,19.7,11.8,30.23,NW,313,3.0,7.0,71,0.00,,SKC,0.00,VWS V15.00,2014-03-24 13:26:00,
2014-03-24 09:32:00,20.0,11.1,30.22,NW,321,5.0,7.0,68,0.00,,SKC,0.00,VWS V15.00,2014-03-24 13:32:00,
2014-03-24 09:37:00,20.3,10.8,30.22,NNW,338,6.0,8.0,66,0.00,,SKC,0.00,VWS V15.00,2014-03-24 13:37:00,
2014-03-24 09:42:00,20.3,10.1,30.22,NNW,334,1.0,8.0,64,0.00,,SKC,0.00,VWS V15.00,2014-03-24 13:42:00,
2014-03-24 09:47:00,20.8,10.6,30.23,NW,318,5.0,8.0,64,0.00,,SKC,0.00,VWS V15.00,2014-03-24 13:47:00,
2014-03-24 09:52:00,21.3,10.7,30.23,NW,315,2.0,8.0,63,0.00,,SKC,0.00,VWS V15.00,2014-03-24 13:52:00,
2014-03-24 09:57:00,21.4,10.4,30.23,NW,320,4.0,8.0,62,0.00,,SKC,0.00,VWS V15.00,2014-03-24 13:57:00,
2014-03-24 10:00:00,21.8,10.8,30.22,NW,320,5.0,8.0,62,0.00,,SKC,0.00,VWS V15.00,2014-03-24 14:00:00,
2014-03-24 10:02:00,21.8,10.8,30.22,NW,320,6.0,6.0,62,0.00,,SKC,0.00,VWS V15.00,2014-03-24 14:02:00,
2014-03-24 10:07:00,21.4,9.3,30.22,NW,320,4.0,7.0,59,0.00,,SKC,0.00,VWS V15.00,2014-03-24 14:07:00,
2014-03-24 10:12:00,21.6,9.5,30.22,NW,320,6.0,7.0,59,0.00,,SKC,0.00,VWS V15.00,2014-03-24 14:12:00,
2014-03-24 10:17:00,21.6,9.5,30.24,NW,320,5.0,7.0,59,0.00,,SKC,0.00,VWS V15.00,2014-03-24 14:17:00,
2014-03-24 10:23:00,21.8,9.3,30.24,NW,320,4.0,7.0,58,0.00,,SKC,0.00,VWS V15.00,2014-03-24 14:23:00,
2014-03-24 10:28:00,22.4,9.5,30.24,NW,320,1.0,7.0,57,0.00,,SKC,0.00,VWS V15.00,2014-03-24 14:28:00,
2014-03-24 10:32:00,23.2,10.6,30.23,NW,322,1.0,7.0,58,0.00,,SKC,0.00,VWS V15.00,2014-03-24 14:32:00,
2014-03-24 10:38:00,23.9,10.1,30.23,NNW,327,0.0,7.0,55,0.00,,SKC,0.00,VWS V15.00,2014-03-24 14:38:00,
2014-03-24 10:43:00,24.2,10.4,30.23,NE,53,4.0,9.0,55,0.00,,SKC,0.00,VWS V15.00,2014-03-24 14:43:00,
2014-03-24 10:48:00,23.5,9.3,30.23,North,355,1.0,9.0,54,0.00,,SKC,0.00,VWS V15.00,2014-03-24 14:48:00,
2014-03-24 10:53:00,23.5,9.3,30.23,North,355,3.0,9.0,54,0.00,,SKC,0.00,VWS V15.00,2014-03-24 14:53:00,
2014-03-24 10:59:00,23.5,9.3,30.23,North,355,4.0,9.0,54,0.00,,SKC,0.00,VWS V15.00,2014-03-24 14:59:00,
2014-03-24 11:00:00,23.9,9.7,30.22,NW,325,8.0,10.0,54,0.00,,SKC,0.00,VWS V15.00,2014-03-24 15:00:00,
2014-03-24 11:03:00,23.9,9.3,30.22,NNW,328,8.0,9.0,53,0.00,,SKC,0.00,VWS V15.00,2014-03-24 15:03:00,
2014-03-24 11:09:00,23.6,8.6,30.22,NNW,331,2.0,9.0,52,0.00,,SKC,0.00,VWS V15.00,2014-03-24 15:09:00,
2014-03-24 11:13:00,23.5,8.5,30.22,NNW,331,5.0,9.0,52,0.00,,SKC,0.00,VWS V15.00,2014-03-24 15:13:00,
2014-03-24 11:19:00,23.6,8.1,30.22,NNW,331,1.0,9.0,51,0.00,,SKC,0.00,VWS V15.00,2014-03-24 15:19:00,
2014-03-24 11:24:00,24.2,8.7,30.22,NNW,330,4.0,9.0,51,0.00,,SKC,0.00,VWS V15.00,2014-03-24 15:24:00,
2014-03-24 11:30:00,24.4,8.0,30.22,North,350,4.0,9.0,49,0.00,,SKC,0.00,VWS V15.00,2014-03-24 15:30:00,
2014-03-24 11:34:00,24.4,8.0,30.21,North,350,0.0,9.0,49,0.00,,SKC,0.00,VWS V15.00,2014-03-24 15:34:00,
2014-03-24 11:39:00,25.1,9.5,30.21,NNW,330,8.0,9.0,51,0.00,,SKC,0.00,VWS V15.00,2014-03-24 15:39:00,
2014-03-24 11:45:00,26.0,10.4,30.21,NNW,333,8.0,11.0,51,0.00,,SKC,0.00,VWS V15.00,2014-03-24 15:45:00,
2014-03-24 11:49:00,25.8,8.4,30.20,NNW,338,4.0,11.0,47,0.00,,SKC,0.00,VWS V15.00,2014-03-24 15:49:00,
2014-03-24 11:54:00,25.4,8.5,30.20,North,349,1.0,11.0,48,0.00,,SKC,0.00,VWS V15.00,2014-03-24 15:54:00,
2014-03-24 12:00:00,25.3,9.3,30.20,NNW,344,4.0,12.0,50,0.00,,SKC,0.00,VWS V15.00,2014-03-24 16:00:00,
2014-03-24 13:00:00,26.3,8.4,30.17,NNW,338,4.0,13.0,46,0.00,,SKC,0.00,VWS V15.00,2014-03-24 17:00:00,
2014-03-24 14:00:00,28.1,8.5,30.14,NNW,338,5.0,13.0,43,0.00,,SKC,0.00,VWS V15.00,2014-03-24 18:00:00,
2014-03-24 15:00:00,30.4,9.5,30.11,NE,45,3.0,9.0,41,0.00,,SKC,0.00,VWS V15.00,2014-03-24 19:00:00,
2014-03-24 16:00:00,30.6,8.0,30.08,ESE,112,4.0,11.0,38,0.00,,SKC,0.00,VWS V15.00,2014-03-24 20:00:00,
2014-03-24 17:00:00,32.4,7.8,30.06,ESE,112,3.0,13.0,35,0.00,,SKC,0.00,VWS V15.00,2014-03-24 21:00:00,
2014-03-24 18:00:00,32.2,9.5,30.05,ESE,112,5.0,13.0,38,0.00,,SKC,0.00,VWS V15.00,2014-03-24 22:00:00,
2014-03-24 19:00:00,30.8,11.0,30.05,ESE,112,5.0,16.0,43,0.00,,SKC,0.00,VWS V15.00,2014-03-24 23:00:00,
2014-03-24 20:00:00,29.0,10.8,30.06,ESE,112,6.0,12.0,46,0.00,,SKC,0.00,VWS V15.00,2014-03-25 00:00:00,
2014-03-24 21:00:00,27.6,9.1,30.06,ESE,112,4.0,9.0,45,0.00,,SKC,0.00,VWS V15.00,2014-03-25 01:00:00,
2014-03-24 22:00:00,26.9,9.4,30.04,ESE,112,2.0,9.0,47,0.00,,SKC,0.00,VWS V15.00,2014-03-25 02:00:00,
2014-03-24 23:00:00,25.4,8.9,30.02,ESE,112,0.0,1.0,49,0.00,,SKC,0.00,VWS V15.00,2014-03-25 03:00:00,